BREEZE-M DEB, 43401

Orbit data source: Space-Track

BREEZE-M DEB, 43401 is space debris in HEO originally from a launch on Thu, 17 May 2012 UTC launched from the Tyuratam Missile And Space Complex (TTMTR). Debris objects in space refer to the collection of defunct objects orbiting the Earth. Examples of debris include non-operational satellites, rocket bodies, and fragments generated from explosions, collisions, or faulty payload assembly.

Loading next visibility...
BREEZE-M DEB details
Identifier
43401, 2012-026N
Orbit
HEO
Last TLE update16 hours ago
Origin
Flag of CISKhrunichev (CIS)
ManufacturerKhrunichev
MissionSpacecraft
Bus & MotorUnknown
MassUnknown
Launch date (UTC)
2012-05-17 (13 years ago)
Launch vehicleUnknown
Launch site
Tyuratam Missile And Space Complex (TTMTR)
Object type
Payload
Rocket body
Debris
Shape & HBRUnknown
Radar Cross SectionRCS unknown

Expand to show TLE details & history

TLE from 16 hours ago
0 BREEZE-M DEB
1 43401U 12026N   24339.52385125 -.00000018  00000-0  00000-0 0  9995
2 43401   9.3443 187.3065 4140999 309.8499 324.6456  1.75796685 79005
Epoch: 2024-12-04T12:34Z
Definitive object data (Epoch: 2024-12-04T12:34:20.747Z)
Latitude-7.37383°
Longitude156.95058°
Altitude15,667.47 km
Speed4.735 km/s
True Right ascension03h 57m 25s
True Declination-7° 21' 35"
Sunlit
Object was in daylight at TLE epoch
Visualization TLE readout
Latitude-0.72549°
Longitude-79.44149°
Altitude12,280.176 km
Speed5.383 km/s
Apparent Right ascension12h 36m 29s
Apparent Declination-10° 35' 47"
Sunlit
Object is in daylight
Visualization observer readout
Local Sidereal Time02:13:00
Azimuth42.754° NE
Elevation-53.711°
Doppler factor1
Orbital elements
Apogee altitude34,633.211 km
Perigee altitude10,613.981 km
Semi-major axis29,001.733 km
Eccentricity0.4140999
Inclination9.3443°
RAAN187.3065°
Arg. of periapsis309.8499°
True anomaly282.4027°
Mean anomaly324.6456°
Eccentric anomaly305.27604°
Mean motion0.43945 °/min
BSTARUnknown
Orbital period819.21 mins
Loading maneuver chart data...
Loading historical data...
Loading historical data...
Loading historical data...
Loading historical data...
Loading historical data...
Loading historical data...
Loading historical data...

BREEZE-M DEB Visibility forecast

Observer location: undefined°, undefined

Span
Click to sort rows by Start time (UTC) header in descending order
Start Az.
Max El. time (UTC)
Max El. Az.
Max El.
End time (UTC)
End Az.
613 mins2024-12-05 18:02:37.568Z242.357° WSW2024-12-05 21:42:37.568Z195.42° SSW38.426°2024-12-06 04:15:37.568Z200.097° SSW
|